• în România
  • Lista ţărilor
  • Pe 7 zile
  • Temperatura apei
  • Hartă satelitară
  • Meteo pe hartă
  • Widget-uri
  • user-avatar
    Intrare

    Meteo pe oră la Yevlakh

    Astăzi, 16 August, Miercuri

    Timp Temperatura Precipitaţii Vânt Presiune Umiditate
    00:00 +28°C° 0 mm 4 m/s 758 mmHg 42%
    01:00 +28°C° 0,1 mm 4 m/s 758 mmHg 45%
    02:00 +27°C° 0,1 mm 3 m/s 758 mmHg 48%
    03:00 +27°C° 0 mm 2 m/s 758 mmHg 50%
    04:00 +27°C° 0,1 mm 2 m/s 758 mmHg 50%
    05:00 +27°C° 0,1 mm 2 m/s 759 mmHg 51%
    06:00 +27°C° 0,1 mm 2 m/s 759 mmHg 52%
    07:00 +28°C° 0 mm 2 m/s 759 mmHg 47%
    08:00 +30°C° 0 mm 3 m/s 758 mmHg 43%
    09:00 +31°C° 0 mm 3 m/s 759 mmHg 41%
    10:00 +33°C° 0,1 mm 3 m/s 758 mmHg 39%
    11:00 +33°C° 0,1 mm 3 m/s 758 mmHg 37%
    12:00 +34°C° 0,1 mm 3 m/s 758 mmHg 35%
    13:00 +34°C° 0 mm 3 m/s 758 mmHg 34%
    14:00 +35°C° 0 mm 2 m/s 758 mmHg 33%
    15:00 +35°C° 0 mm 2 m/s 757 mmHg 32%
    16:00 +35°C° 0 mm 2 m/s 758 mmHg 33%
    17:00 +34°C° 0 mm 3 m/s 758 mmHg 33%
    18:00 +34°C° 0 mm 3 m/s 758 mmHg 34%
    19:00 +33°C° 0 mm 3 m/s 758 mmHg 35%
    20:00 +31°C° 0 mm 3 m/s 758 mmHg 35%
    21:00 +30°C° 0 mm 3 m/s 759 mmHg 36%
    22:00 +29°C° 0 mm 3 m/s 759 mmHg 38%
    23:00 +29°C° 0 mm 2 m/s 759 mmHg 40%

    Mâine, 17 August, Joi

    Timp Temperatura Precipitaţii Vânt Presiune Umiditate
    00:00 +28°C° 0 mm 2 m/s 759 mmHg 42%
    01:00 +27°C° 0 mm 2 m/s 759 mmHg 43%
    02:00 +27°C° 0 mm 1 m/s 759 mmHg 45%
    03:00 +27°C° 0 mm 1 m/s 759 mmHg 46%
    04:00 +27°C° 0 mm 1 m/s 758 mmHg 45%
    05:00 +27°C° 0 mm 1 m/s 758 mmHg 44%
    06:00 +27°C° 0 mm 1 m/s 758 mmHg 43%
    07:00 +29°C° 0 mm 1 m/s 759 mmHg 38%
    08:00 +31°C° 0 mm 2 m/s 759 mmHg 33%
    09:00 +32°C° 0 mm 2 m/s 759 mmHg 28%
    10:00 +34°C° 0 mm 2 m/s 758 mmHg 28%
    11:00 +35°C° 0 mm 2 m/s 758 mmHg 27%
    12:00 +35°C° 0 mm 3 m/s 758 mmHg 26%
    13:00 +36°C° 0 mm 3 m/s 758 mmHg 26%
    14:00 +36°C° 0 mm 3 m/s 757 mmHg 26%
    15:00 +36°C° 0 mm 3 m/s 757 mmHg 26%
    16:00 +36°C° 0 mm 3 m/s 757 mmHg 27%
    17:00 +35°C° 0 mm 3 m/s 757 mmHg 29%
    18:00 +35°C° 0 mm 3 m/s 757 mmHg 30%
    19:00 +33°C° 0 mm 3 m/s 758 mmHg 31%
    20:00 +31°C° 0 mm 3 m/s 758 mmHg 33%
    21:00 +30°C° 0 mm 3 m/s 759 mmHg 34%
    22:00 +29°C° 0 mm 3 m/s 759 mmHg 36%
    23:00 +28°C° 0 mm 2 m/s 759 mmHg 38%

    Poimâine, 18 August, Vineri

    Timp Temperatura Precipitaţii Vânt Presiune Umiditate
    00:00 +28°C° 0 mm 2 m/s 759 mmHg 39%
    01:00 +27°C° 0 mm 2 m/s 759 mmHg 40%
    02:00 +27°C° 0 mm 2 m/s 759 mmHg 41%
    03:00 +26°C° 0 mm 2 m/s 759 mmHg 43%
    04:00 +26°C° 0 mm 2 m/s 759 mmHg 42%
    05:00 +26°C° 0 mm 2 m/s 759 mmHg 42%
    06:00 +26°C° 0 mm 2 m/s 759 mmHg 41%
    07:00 +28°C° 0 mm 2 m/s 759 mmHg 36%
    08:00 +30°C° 0 mm 3 m/s 758 mmHg 32%
    09:00 +33°C° 0 mm 3 m/s 758 mmHg 27%
    10:00 +35°C° 0 mm 2 m/s 758 mmHg 24%
    11:00 +36°C° 0 mm 2 m/s 758 mmHg 22%
    12:00 +37°C° 0 mm 2 m/s 758 mmHg 20%
    13:00 +38°C° 0 mm 2 m/s 757 mmHg 19%
    14:00 +39°C° 0 mm 3 m/s 757 mmHg 18%
    15:00 +40°C° 0 mm 3 m/s 757 mmHg 17%
    16:00 +40°C° 0 mm 4 m/s 757 mmHg 17%
    17:00 +40°C° 0 mm 4 m/s 757 mmHg 18%
    18:00 +38°C° 0 mm 4 m/s 758 mmHg 19%
    19:00 +36°C° 0 mm 4 m/s 758 mmHg 21%
    20:00 +34°C° 0 mm 4 m/s 759 mmHg 22%
    21:00 +32°C° 0 mm 5 m/s 760 mmHg 24%
    22:00 +30°C° 0 mm 4 m/s 760 mmHg 26%
    23:00 +29°C° 0 mm 3 m/s 760 mmHg 28%

    19 August, Sâmbătă

    Timp Temperatura Precipitaţii Vânt Presiune Umiditate
    00:00 +28°C° 0 mm 2 m/s 760 mmHg 30%
    01:00 +28°C° 0 mm 2 m/s 760 mmHg 30%
    02:00 +27°C° 0 mm 2 m/s 760 mmHg 31%
    03:00 +27°C° 0 mm 2 m/s 760 mmHg 31%
    04:00 +27°C° 0 mm 2 m/s 761 mmHg 31%
    05:00 +27°C° 0 mm 2 m/s 761 mmHg 30%
    06:00 +27°C° 0 mm 1 m/s 761 mmHg 30%
    07:00 +30°C° 0 mm 1 m/s 761 mmHg 26%
    08:00 +32°C° 0 mm 1 m/s 761 mmHg 22%
    09:00 +34°C° 0 mm 1 m/s 761 mmHg 18%
    10:00 +36°C° 0 mm 2 m/s 761 mmHg 16%
    11:00 +38°C° 0 mm 3 m/s 760 mmHg 15%
    12:00 +39°C° 0 mm 3 m/s 760 mmHg 13%
    13:00 +41°C° 0 mm 4 m/s 760 mmHg 13%
    14:00 +41°C° 0 mm 5 m/s 759 mmHg 13%
    15:00 +42°C° 0 mm 5 m/s 759 mmHg 12%
    16:00 +41°C° 0 mm 5 m/s 759 mmHg 14%
    17:00 +40°C° 0 mm 5 m/s 760 mmHg 15%
    18:00 +39°C° 0 mm 6 m/s 760 mmHg 16%
    19:00 +36°C° 0 mm 5 m/s 760 mmHg 18%
    20:00 +34°C° 0 mm 5 m/s 761 mmHg 20%
    21:00 +32°C° 0 mm 5 m/s 762 mmHg 22%
    22:00 +30°C° 0 mm 4 m/s 762 mmHg 24%
    23:00 +29°C° 0 mm 3 m/s 762 mmHg 27%

    20 August, Duminică

    Timp Temperatura Precipitaţii Vânt Presiune Umiditate
    00:00 +28°C° 0 mm 2 m/s 762 mmHg 29%
    01:00 +27°C° 0 mm 2 m/s 762 mmHg 29%
    02:00 +27°C° 0 mm 2 m/s 761 mmHg 29%
    03:00 +26°C° 0 mm 2 m/s 761 mmHg 30%
    04:00 +27°C° 0 mm 1 m/s 761 mmHg 30%
    05:00 +27°C° 0 mm 1 m/s 761 mmHg 29%
    06:00 +27°C° 0 mm 1 m/s 762 mmHg 29%
    07:00 +29°C° 0 mm 1 m/s 761 mmHg 26%
    08:00 +31°C° 0 mm 1 m/s 761 mmHg 22%
    09:00 +33°C° 0 mm 1 m/s 761 mmHg 19%
    10:00 +36°C° 0 mm 2 m/s 760 mmHg 17%
    11:00 +37°C° 0 mm 3 m/s 760 mmHg 15%
    12:00 +39°C° 0 mm 3 m/s 759 mmHg 14%
    13:00 +40°C° 0 mm 4 m/s 759 mmHg 13%
    14:00 +41°C° 0 mm 4 m/s 759 mmHg 13%
    15:00 +42°C° 0 mm 5 m/s 758 mmHg 13%
    16:00 +41°C° 0 mm 5 m/s 759 mmHg 14%
    17:00 +40°C° 0 mm 5 m/s 759 mmHg 16%
    18:00 +39°C° 0 mm 5 m/s 759 mmHg 18%
    19:00 +36°C° 0 mm 5 m/s 759 mmHg 21%
    20:00 +34°C° 0 mm 4 m/s 760 mmHg 24%
    21:00 +32°C° 0 mm 4 m/s 761 mmHg 28%
    22:00 +30°C° 0 mm 4 m/s 761 mmHg 29%
    23:00 +29°C° 0 mm 3 m/s 761 mmHg 31%

    21 August, Luni

    Timp Temperatura Precipitaţii Vânt Presiune Umiditate
    00:00 +28°C° 0 mm 2 m/s 761 mmHg 33%
    01:00 +27°C° 0 mm 2 m/s 761 mmHg 32%
    02:00 +27°C° 0 mm 1 m/s 761 mmHg 32%
    03:00 +27°C° 0 mm 1 m/s 760 mmHg 32%
    04:00 +27°C° 0 mm 1 m/s 761 mmHg 31%
    05:00 +27°C° 0 mm 1 m/s 761 mmHg 31%
    06:00 +27°C° 0 mm 2 m/s 761 mmHg 30%
    07:00 +29°C° 0 mm 2 m/s 761 mmHg 27%
    08:00 +31°C° 0 mm 2 m/s 760 mmHg 23%
    09:00 +34°C° 0 mm 2 m/s 760 mmHg 19%
    10:00 +36°C° 0 mm 2 m/s 760 mmHg 18%
    11:00 +37°C° 0 mm 2 m/s 759 mmHg 16%
    12:00 +39°C° 0 mm 3 m/s 759 mmHg 15%
    13:00 +39°C° 0 mm 3 m/s 759 mmHg 14%
    14:00 +41°C° 0 mm 4 m/s 758 mmHg 13%
    15:00 +42°C° 0 mm 4 m/s 758 mmHg 13%
    16:00 +41°C° 0 mm 4 m/s 758 mmHg 14%
    17:00 +40°C° 0 mm 4 m/s 758 mmHg 16%
    18:00 +38°C° 0 mm 4 m/s 758 mmHg 17%
    19:00 +36°C° 0 mm 5 m/s 759 mmHg 20%
    20:00 +34°C° 0 mm 5 m/s 759 mmHg 23%
    21:00 +32°C° 0 mm 5 m/s 760 mmHg 26%
    22:00 +30°C° 0 mm 4 m/s 760 mmHg 28%
    23:00 +29°C° 0 mm 3 m/s 760 mmHg 31%
    Arată mai mult